RYS9425 EPKT-LBWN

Flight info

Callsign RYS9425
Flight time 1h 27m
Altitude 35000
Route BABKO DCT EVRIK DCT RASUB DCT BULEN L744 EXIGA
Aircraft B738/M-SDE2E3FGHIRWXY/LB1

Departure

Time 2026-04-28 14:42
Airport Katowice Wojciech Korfanty International Airport (EPKT)

Arrival

Time 2026-04-28 16:10
Airport Varna Airport (LBWN)
Time Latitude Longitude Altitude Speed Heading
2026-04-28 14:35 50.47144 19.09500 999 ft 0 kts 180°
2026-04-28 14:38 50.47150 19.09500 1000 ft 4 kts 180°
2026-04-28 14:38 50.47177 19.09500 1000 ft 4 kts 180°
2026-04-28 14:38 50.47201 19.09500 997 ft 4 kts 182°
2026-04-28 14:38 50.47224 19.09510 997 ft 4 kts 236°
2026-04-28 14:39 50.47230 19.09546 1000 ft 3 kts 270°
2026-04-28 14:39 50.47230 19.09558 997 ft 0 kts 270°
2026-04-28 14:41 50.47230 19.09556 997 ft 2 kts 270°
2026-04-28 14:41 50.47230 19.09462 997 ft 15 kts 273°
2026-04-28 14:41 50.47343 19.09388 999 ft 23 kts
2026-04-28 14:41 50.47503 19.09391 998 ft 23 kts
2026-04-28 14:42 50.47597 19.09259 1001 ft 22 kts 270°
2026-04-28 14:42 50.47599 19.08657 999 ft 99 kts 270°
2026-04-28 14:42 50.47602 19.07150 1010 ft 173 kts 273°
2026-04-28 14:42 50.47590 19.05178 1862 ft 184 kts 274°
2026-04-28 14:43 50.47594 19.03117 2867 ft 198 kts 273°
2026-04-28 14:43 50.47604 19.00763 3325 ft 231 kts 273°
2026-04-28 14:43 50.47485 18.98173 3791 ft 244 kts 254°
2026-04-28 14:43 50.46623 18.95885 4480 ft 249 kts 225°
2026-04-28 14:44 50.45245 18.94105 5017 ft 267 kts 207°
2026-04-28 14:44 50.43438 18.93513 5820 ft 268 kts 178°
2026-04-28 14:44 50.41559 18.93613 6677 ft 273 kts 178°
2026-04-28 14:44 50.39613 18.93690 7317 ft 284 kts 180°
2026-04-28 14:45 50.37634 18.93732 8173 ft 286 kts 181°
2026-04-28 14:45 50.35631 18.93744 8973 ft 291 kts 182°
2026-04-28 14:45 50.33588 18.93740 9738 ft 297 kts 182°
2026-04-28 14:45 50.31504 18.93731 10391 ft 307 kts 183°
2026-04-28 14:46 50.29284 18.93885 10563 ft 334 kts 170°
2026-04-28 14:46 50.27043 18.95262 10766 ft 359 kts 154°
2026-04-28 14:46 50.24756 18.97091 11024 ft 377 kts 153°
2026-04-28 14:46 50.22407 18.99015 11629 ft 384 kts 153°
2026-04-28 14:47 50.20032 19.00955 12381 ft 387 kts 153°
2026-04-28 14:47 50.17632 19.02896 13102 ft 390 kts 153°
2026-04-28 14:47 50.15201 19.04842 13783 ft 395 kts 154°
2026-04-28 14:47 50.12740 19.06797 14422 ft 399 kts 154°
2026-04-28 14:48 50.10251 19.08762 15050 ft 403 kts 154°
2026-04-28 14:48 50.07741 19.10737 15679 ft 406 kts 154°
2026-04-28 14:48 50.05203 19.12729 16293 ft 411 kts 154°
2026-04-28 14:48 50.02640 19.14738 16886 ft 415 kts 154°
2026-04-28 14:49 50.00050 19.16765 17462 ft 419 kts 155°
2026-04-28 14:49 49.97435 19.18809 18075 ft 423 kts 155°
2026-04-28 14:49 49.94795 19.20871 18609 ft 427 kts 155°
2026-04-28 14:49 49.92128 19.22951 19094 ft 431 kts 155°
2026-04-28 14:50 49.89438 19.25047 19598 ft 434 kts 155°
2026-04-28 14:50 49.86727 19.27157 20103 ft 438 kts 155°
2026-04-28 14:50 49.83993 19.29282 20589 ft 441 kts 155°
2026-04-28 14:50 49.81235 19.31423 21070 ft 445 kts 155°
2026-04-28 14:51 49.78455 19.33578 21547 ft 449 kts 155°
2026-04-28 14:51 49.75658 19.35743 22001 ft 453 kts 156°
2026-04-28 14:51 49.72830 19.37931 22445 ft 456 kts 156°
2026-04-28 14:51 49.69979 19.40133 22896 ft 459 kts 156°
2026-04-28 14:52 49.67147 19.42318 23296 ft 463 kts 156°
2026-04-28 14:52 49.64257 19.44546 23749 ft 466 kts 156°
2026-04-28 14:52 49.61349 19.46788 24117 ft 469 kts 155°
2026-04-28 14:52 49.58486 19.49232 24485 ft 472 kts 153°
2026-04-28 14:53 49.55647 19.51806 24861 ft 475 kts 152°
2026-04-28 14:53 49.52764 19.54468 25171 ft 479 kts 152°
2026-04-28 14:53 49.49902 19.57123 25480 ft 482 kts 152°
2026-04-28 14:53 49.47022 19.59785 25826 ft 484 kts 152°
2026-04-28 14:54 49.44163 19.62411 26092 ft 488 kts 152°
2026-04-28 14:54 49.41235 19.65085 26404 ft 491 kts 153°
2026-04-28 14:54 49.38291 19.67762 26743 ft 493 kts 153°
2026-04-28 14:54 49.35332 19.70443 27050 ft 495 kts 153°
2026-04-28 14:55 49.32356 19.73133 27360 ft 498 kts 153°
2026-04-28 14:55 49.29366 19.75830 27674 ft 500 kts 153°
2026-04-28 14:55 49.26358 19.78540 27951 ft 503 kts 153°
2026-04-28 14:55 49.23336 19.81260 28256 ft 505 kts 153°
2026-04-28 14:56 49.20302 19.83987 28556 ft 507 kts 153°
2026-04-28 14:56 49.17256 19.86721 28764 ft 510 kts 153°
2026-04-28 14:56 49.14185 19.89480 28952 ft 513 kts 153°
2026-04-28 14:56 49.11114 19.92241 29437 ft 509 kts 154°
2026-04-28 14:57 49.08076 19.94956 29955 ft 506 kts 154°
2026-04-28 14:57 49.06063 19.96752 30218 ft 506 kts 154°
2026-04-28 14:57 49.01995 20.00373 30558 ft 507 kts 154°
2026-04-28 14:57 48.98942 20.03085 30829 ft 508 kts 154°
2026-04-28 14:58 48.95890 20.05797 31152 ft 508 kts 154°
2026-04-28 14:58 48.92842 20.08502 31466 ft 506 kts 154°
2026-04-28 14:58 48.89798 20.11201 31757 ft 507 kts 154°
2026-04-28 14:58 48.86754 20.13895 32102 ft 505 kts 154°
2026-04-28 14:59 48.83729 20.16570 32511 ft 501 kts 154°
2026-04-28 14:59 48.80720 20.19228 32830 ft 501 kts 155°
2026-04-28 14:59 48.77703 20.21888 33023 ft 502 kts 155°
2026-04-28 14:59 48.74683 20.24545 33227 ft 503 kts 155°
2026-04-28 15:00 48.71652 20.27202 33455 ft 504 kts 155°
2026-04-28 15:00 48.68654 20.29830 33668 ft 505 kts 155°
2026-04-28 15:00 48.65615 20.32492 33943 ft 504 kts 155°
2026-04-28 15:00 48.62581 20.35149 34220 ft 504 kts 155°
2026-04-28 15:01 48.59550 20.37800 34478 ft 503 kts 155°
2026-04-28 15:01 48.56530 20.40437 34695 ft 502 kts 155°
2026-04-28 15:01 48.53506 20.43073 34929 ft 502 kts 155°
2026-04-28 15:01 48.50479 20.45707 35120 ft 503 kts 155°
2026-04-28 15:02 48.47438 20.48347 35121 ft 506 kts 155°
2026-04-28 15:02 48.41333 20.53640 35133 ft 505 kts 155°
2026-04-28 15:03 48.35277 20.58882 35132 ft 500 kts 155°
2026-04-28 15:03 48.29256 20.64076 35123 ft 498 kts 155°
2026-04-28 15:04 48.23257 20.69233 35142 ft 497 kts 155°
2026-04-28 15:04 48.17259 20.74376 35141 ft 497 kts 155°
2026-04-28 15:05 48.11251 20.79512 35152 ft 498 kts 155°
2026-04-28 15:05 48.05226 20.84651 35154 ft 499 kts 155°
2026-04-28 15:06 48.00200 20.88926 35142 ft 502 kts 155°
2026-04-28 15:06 47.94119 20.94087 35153 ft 504 kts 155°
2026-04-28 15:07 47.88005 20.99262 35153 ft 507 kts 155°
2026-04-28 15:07 47.81861 21.04448 35150 ft 508 kts 155°
2026-04-28 15:08 47.75695 21.09639 35128 ft 509 kts 156°
2026-04-28 15:08 47.69526 21.14820 35141 ft 509 kts 156°
2026-04-28 15:09 47.63357 21.19985 35143 ft 509 kts 156°
2026-04-28 15:09 47.57195 21.25130 35139 ft 508 kts 156°
2026-04-28 15:10 47.51051 21.30247 35101 ft 507 kts 156°
2026-04-28 15:10 47.44956 21.35309 35134 ft 505 kts 156°
2026-04-28 15:11 47.38824 21.40387 35151 ft 505 kts 156°
2026-04-28 15:11 47.32691 21.45451 35149 ft 505 kts 156°
2026-04-28 15:12 47.26552 21.50507 35141 ft 506 kts 156°
2026-04-28 15:12 47.20412 21.55551 35146 ft 506 kts 156°
2026-04-28 15:13 47.14246 21.60601 35140 ft 508 kts 156°
2026-04-28 15:13 47.08056 21.65659 35130 ft 510 kts 156°
2026-04-28 15:14 47.01849 21.70717 35137 ft 511 kts 156°
2026-04-28 15:14 46.95609 21.75789 35099 ft 513 kts 157°
2026-04-28 15:15 46.89370 21.80846 35125 ft 514 kts 157°
2026-04-28 15:15 46.83101 21.85914 35135 ft 516 kts 157°
2026-04-28 15:16 46.76812 21.90984 35133 ft 517 kts 157°
2026-04-28 15:16 46.70510 21.96052 35124 ft 517 kts 157°
2026-04-28 15:17 46.64201 22.01112 35132 ft 518 kts 157°
2026-04-28 15:17 46.57894 22.06157 35126 ft 517 kts 157°
2026-04-28 15:18 46.51639 22.11148 35118 ft 516 kts 157°
2026-04-28 15:18 46.45311 22.16182 35070 ft 515 kts 157°
2026-04-28 15:19 46.39096 22.21115 35109 ft 513 kts 157°
2026-04-28 15:19 46.33128 22.26845 35099 ft 521 kts 140°
2026-04-28 15:20 46.27953 22.34206 35102 ft 522 kts 137°
2026-04-28 15:20 46.22828 22.41645 35102 ft 522 kts 138°
2026-04-28 15:21 46.17662 22.49023 35068 ft 522 kts 138°
2026-04-28 15:21 46.12474 22.56333 35113 ft 522 kts 139°
2026-04-28 15:22 46.07268 22.63627 35088 ft 522 kts 139°
2026-04-28 15:22 46.02064 22.70911 35082 ft 521 kts 139°
2026-04-28 15:23 45.96871 22.78156 35093 ft 521 kts 139°
2026-04-28 15:23 45.91657 22.85403 35095 ft 521 kts 139°
2026-04-28 15:24 45.86440 22.92642 35058 ft 521 kts 139°
2026-04-28 15:24 45.81222 22.99865 35077 ft 521 kts 139°
2026-04-28 15:25 45.76000 23.07074 35096 ft 521 kts 138°
2026-04-28 15:25 45.70770 23.14272 35093 ft 522 kts 139°
2026-04-28 15:26 45.65534 23.21460 35089 ft 522 kts 139°
2026-04-28 15:26 45.60288 23.28639 35086 ft 522 kts 139°
2026-04-28 15:27 45.55054 23.35785 35078 ft 519 kts 139°
2026-04-28 15:27 45.49845 23.42884 35082 ft 516 kts 139°
2026-04-28 15:28 45.44658 23.49927 35101 ft 515 kts 139°
2026-04-28 15:28 45.39491 23.56917 35075 ft 516 kts 139°
2026-04-28 15:29 45.34273 23.63964 35072 ft 518 kts 139°
2026-04-28 15:29 45.29048 23.71005 35068 ft 518 kts 139°
2026-04-28 15:30 45.23812 23.78040 35067 ft 517 kts 139°
2026-04-28 15:30 45.18579 23.85051 35062 ft 518 kts 139°
2026-04-28 15:31 45.13345 23.92045 35066 ft 518 kts 139°
2026-04-28 15:31 45.08094 23.99043 35057 ft 519 kts 139°
2026-04-28 15:32 45.02836 24.06033 35068 ft 519 kts 139°
2026-04-28 15:32 44.97573 24.13011 35024 ft 519 kts 139°
2026-04-28 15:33 44.92315 24.19964 35054 ft 517 kts 139°
2026-04-28 15:33 44.87066 24.26886 35062 ft 516 kts 139°
2026-04-28 15:34 44.81817 24.33790 35068 ft 516 kts 139°
2026-04-28 15:34 44.76567 24.40677 35065 ft 516 kts 139°
2026-04-28 15:35 44.71317 24.47548 35064 ft 515 kts 139°
2026-04-28 15:35 44.63452 24.57805 35062 ft 513 kts 139°
2026-04-28 15:36 44.58217 24.64611 35061 ft 513 kts 139°
2026-04-28 15:36 44.52986 24.71395 35067 ft 512 kts 139°
2026-04-28 15:37 44.47760 24.78154 35062 ft 512 kts 139°
2026-04-28 15:37 44.43413 24.83763 35069 ft 511 kts 139°
2026-04-28 15:38 44.37301 24.91631 35046 ft 510 kts 139°
2026-04-28 15:38 44.32075 24.98339 35062 ft 510 kts 139°
2026-04-28 15:39 44.26885 25.04983 35072 ft 509 kts 139°
2026-04-28 15:39 44.21661 25.11656 35066 ft 509 kts 139°
2026-04-28 15:40 44.16440 25.18308 35064 ft 509 kts 139°
2026-04-28 15:40 44.11213 25.24951 35067 ft 509 kts 139°
2026-04-28 15:41 44.05988 25.31575 35059 ft 508 kts 139°
2026-04-28 15:41 44.00769 25.38178 35064 ft 507 kts 139°
2026-04-28 15:42 43.95798 25.45113 35063 ft 507 kts 129°
2026-04-28 15:42 43.93610 25.48969 34783 ft 510 kts 128°
2026-04-28 15:42 43.91451 25.52876 34073 ft 512 kts 127°
2026-04-28 15:43 43.89275 25.56803 33269 ft 514 kts 128°
2026-04-28 15:43 43.87078 25.60710 32557 ft 514 kts 128°
2026-04-28 15:43 43.84863 25.64594 31839 ft 514 kts 128°
2026-04-28 15:43 43.82637 25.68463 31157 ft 513 kts 129°
2026-04-28 15:44 43.80416 25.72314 30499 ft 511 kts 129°
2026-04-28 15:44 43.78194 25.76164 29688 ft 512 kts 129°
2026-04-28 15:44 43.76056 25.80087 28825 ft 511 kts 123°
2026-04-28 15:44 43.74305 25.84352 28073 ft 508 kts 114°
2026-04-28 15:45 43.73043 25.88875 27525 ft 500 kts 107°
2026-04-28 15:45 43.71949 25.93405 26905 ft 495 kts 107°
2026-04-28 15:45 43.70865 25.97897 26312 ft 490 kts 107°
2026-04-28 15:45 43.69779 26.02340 25729 ft 486 kts 108°
2026-04-28 15:46 43.68702 26.06680 25151 ft 482 kts 108°
2026-04-28 15:46 43.67608 26.11035 24568 ft 478 kts 108°
2026-04-28 15:46 43.66515 26.15352 23986 ft 474 kts 108°
2026-04-28 15:46 43.65424 26.19639 23345 ft 472 kts 108°
2026-04-28 15:47 43.64341 26.23887 22695 ft 468 kts 108°
2026-04-28 15:47 43.63263 26.28107 22089 ft 463 kts 109°
2026-04-28 15:47 43.62196 26.32281 21502 ft 459 kts 109°
2026-04-28 15:47 43.61138 26.36412 20929 ft 454 kts 109°
2026-04-28 15:48 43.60089 26.40503 20372 ft 450 kts 109°
2026-04-28 15:48 43.59051 26.44548 19807 ft 446 kts 109°
2026-04-28 15:48 43.58017 26.48566 19245 ft 443 kts 109°
2026-04-28 15:48 43.56991 26.52552 18696 ft 439 kts 109°
2026-04-28 15:49 43.55968 26.56512 18077 ft 437 kts 109°
2026-04-28 15:49 43.54952 26.60444 17459 ft 433 kts 109°
2026-04-28 15:49 43.53943 26.64340 16886 ft 429 kts 109°
2026-04-28 15:49 43.52942 26.68200 16329 ft 426 kts 109°
2026-04-28 15:50 43.51951 26.72014 15782 ft 422 kts 109°
2026-04-28 15:50 43.50965 26.75805 15236 ft 418 kts 109°
2026-04-28 15:50 43.49987 26.79562 14707 ft 415 kts 109°
2026-04-28 15:50 43.49014 26.83289 14178 ft 412 kts 109°
2026-04-28 15:51 43.48047 26.86989 13611 ft 409 kts 108°
2026-04-28 15:51 43.47379 26.90758 13042 ft 403 kts 93°
2026-04-28 15:51 43.47251 26.94561 12564 ft 396 kts 89°
2026-04-28 15:51 43.47170 26.98339 12022 ft 393 kts 89°
2026-04-28 15:52 43.47081 27.02080 11504 ft 389 kts 90°
2026-04-28 15:52 43.46975 27.05789 11117 ft 383 kts 90°
2026-04-28 15:52 43.46856 27.09392 10917 ft 372 kts 90°
2026-04-28 15:52 43.46732 27.12891 10744 ft 360 kts 90°
2026-04-28 15:53 43.46607 27.16283 10591 ft 350 kts 91°
2026-04-28 15:53 43.46485 27.19578 10436 ft 340 kts 91°
2026-04-28 15:53 43.46365 27.22781 10304 ft 330 kts 90°
2026-04-28 15:53 43.46248 27.25897 10172 ft 322 kts 90°
2026-04-28 15:54 43.46133 27.28928 10031 ft 314 kts 91°
2026-04-28 15:54 43.46019 27.31874 9972 ft 303 kts 91°
2026-04-28 15:54 43.45846 27.34796 9482 ft 308 kts 94°
2026-04-28 15:54 43.45678 27.36724 9289 ft 306 kts 95°
2026-04-28 15:55 43.45414 27.39629 8977 ft 305 kts 95°
2026-04-28 15:55 43.44432 27.43161 8627 ft 302 kts 133°
2026-04-28 15:55 43.42737 27.44740 8385 ft 293 kts 163°
2026-04-28 15:55 43.40764 27.45160 8138 ft 284 kts 186°
2026-04-28 15:56 43.39483 27.44895 7983 ft 278 kts 199°
2026-04-28 15:56 43.37723 27.43823 7727 ft 270 kts 218°
2026-04-28 15:56 43.36402 27.42102 7475 ft 263 kts 234°
2026-04-28 15:56 43.35523 27.39929 7195 ft 256 kts 261°
2026-04-28 15:57 43.35432 27.37558 6990 ft 251 kts 276°
2026-04-28 15:57 43.35584 27.35176 6727 ft 251 kts 272°
2026-04-28 15:57 43.35155 27.32856 6463 ft 256 kts 242°
2026-04-28 15:57 43.33911 27.31099 6186 ft 262 kts 214°
2026-04-28 15:58 43.32189 27.30261 5973 ft 266 kts 192°
2026-04-28 15:58 43.30340 27.30158 5704 ft 270 kts 171°
2026-04-28 15:58 43.28877 27.31030 5473 ft 272 kts 143°
2026-04-28 15:58 43.27724 27.33020 5263 ft 264 kts 107°
2026-04-28 15:59 43.27424 27.35392 5226 ft 245 kts 93°
2026-04-28 15:59 43.27256 27.37647 5108 ft 231 kts 95°
2026-04-28 15:59 43.27072 27.39757 4997 ft 216 kts 94°
2026-04-28 15:59 43.26892 27.41727 4868 ft 201 kts 94°
2026-04-28 16:00 43.26720 27.43609 4535 ft 200 kts 95°
2026-04-28 16:00 43.26549 27.45466 4298 ft 193 kts 94°
2026-04-28 16:00 43.26386 27.47251 4097 ft 185 kts 95°
2026-04-28 16:00 43.26227 27.48971 3907 ft 177 kts 95°
2026-04-28 16:01 43.26078 27.50588 3790 ft 165 kts 95°
2026-04-28 16:01 43.25937 27.52124 3712 ft 171 kts 95°
2026-04-28 16:01 43.25772 27.53925 3826 ft 203 kts 96°
2026-04-28 16:01 43.25596 27.55841 3801 ft 199 kts 96°
2026-04-28 16:02 43.25426 27.57694 3598 ft 192 kts 96°
2026-04-28 16:02 43.25265 27.59470 3348 ft 183 kts 96°
2026-04-28 16:02 43.25111 27.61162 3114 ft 175 kts 96°
2026-04-28 16:02 43.24965 27.62783 2903 ft 167 kts 97°
2026-04-28 16:03 43.24826 27.64310 2718 ft 153 kts 97°
2026-04-28 16:03 43.24698 27.65735 2504 ft 147 kts 96°
2026-04-28 16:03 43.24574 27.67104 2301 ft 141 kts 97°
2026-04-28 16:03 43.24457 27.68399 2118 ft 134 kts 97°
2026-04-28 16:04 43.24339 27.69706 1956 ft 144 kts 98°
2026-04-28 16:04 43.24216 27.71079 1743 ft 145 kts 98°
2026-04-28 16:04 43.24112 27.72247 1569 ft 141 kts 98°
2026-04-28 16:05 43.24060 27.72825 1484 ft 140 kts 99°
2026-04-28 16:05 43.24016 27.73311 1447 ft 139 kts 98°
2026-04-28 16:06 43.24014 27.73340 1439 ft 139 kts 98°
2026-04-28 16:06 43.23894 27.74674 1248 ft 140 kts 98°
2026-04-28 16:07 43.23777 27.75983 1060 ft 135 kts 98°
2026-04-28 16:07 43.23661 27.77279 866 ft 138 kts 100°
2026-04-28 16:07 43.23554 27.78503 684 ft 136 kts 99°
2026-04-28 16:09 43.23482 27.79233 564 ft 136 kts 99°
2026-04-28 16:09 43.23452 27.79577 495 ft 136 kts 98°
2026-04-28 16:10 43.23245 27.81957 227 ft 103 kts 97°
2026-04-28 16:10 43.23183 27.82635 229 ft 40 kts 97°
2026-04-28 16:10 43.23143 27.83091 231 ft 22 kts 98°
2026-04-28 16:11 43.23311 27.83310 232 ft 21 kts
2026-04-28 16:11 43.23530 27.83236 232 ft 20 kts 234°
2026-04-28 16:12 43.23477 27.83231 232 ft 0 kts 154°